Hourly Weather Roundup
Issued by NWS Central Illinois

Home | Current Version | Previous Version | Text Only | Print | Product List | Glossary On
Versions: 1 2 3 4 5 6 7 8 9 10 11 12 13 14 15 16 17 18 19 20 21 22 23 24 25 26 27 28 29 30 31 32 33 34 35 36 37 38 39 40 41 42 43 44 45 46 47 48 49 50
000
NZUS43 KILX 120810
HWRILX

AREA WEATHER ROUNDUP
NATIONAL WEATHER SERVICE, LINCOLN IL
200 AM CST FRI FEB 12 2016


CITY           SKY/WX    TMP DP  RH WIND       PRES   REMARKS
BLOOMINGTON    FLURRIES  21  16  81 SW5       30.21F WCI  15
CHAMPAIGN      CLOUDY    22  13  68 CALM      30.21F
DANVILLE       CLOUDY    18  13  80 CALM      30.20F
DECATUR        CLOUDY    24  12  60 CALM      30.22F
EFFINGHAM      CLOUDY    25  16  68 CALM      30.24S
FLORA          CLOUDY    27  15  60 CALM      30.23F
GALESBURG      FLURRIES  20  17  90 W3        30.22F
JACKSONVILLE   LGT SNOW  24  19  81 CALM      30.23F
LACON          FLURRIES  22  12  65 W3        30.21F
LAWRENCEVILLE  CLOUDY    24  13  62 NE6       30.23F WCI  17
LITCHFIELD     CLOUDY    24  15  68 CALM      30.22S
$$


CITY           SKY/WX    TMP DP  RH WIND       PRES   REMARKS
LINCOLN        LGT SNOW  23  20  88 CALM      30.23F
MACOMB         FLURRIES  22  20  93 W3        30.25S
MATTOON        CLOUDY    21  13  71 E3        30.20F
MT CARMEL AP   CLOUDY    27  10  50 CALM      30.22F
OLNEY-NOBLE AP CLOUDY    27  14  59 E3        30.24S
PARIS          CLOUDY    21  15  80 CALM      30.23F
PEORIA         FLURRIES  23  13  65 W3        30.23F
PONTIAC        CLOUDY    23  16  73 SW6       30.22F WCI  16
RANTOUL        CLOUDY    22  12  64 CALM      30.21F
ROBINSON       PTCLDY    22  13  69 CALM      30.24F
SPRINGFIELD    LGT SNOW  23  20  88 SW3       30.24S FOG
TAYLORVILLE    LGT SNOW  23  19  86 CALM      30.24S
$$

...REGIONAL REPORTS...


CITY           SKY/WX    TMP DP  RH WIND       PRES   REMARKS
CHICAGO O`HARE CLOUDY    19   7  59 SW9       30.18F WCI   8
KANKAKEE       CLOUDY    19  11  71 SW5       30.22F WCI  12
MOLINE         CLOUDY    21  13  71 W6        30.22F WCI  13
MOUNT STERLING LGT SNOW  20  17  90 CALM      30.21F
MOUNT VERNON   CLOUDY    27  12  54 CALM      30.23S
PITTSFIELD     LGT SNOW  22  19  89 NE3       30.23F
QUINCY         LGT SNOW  20  17  88 CALM      30.22F FOG
ROCKFORD       CLOUDY    17   6  62 SW3       30.20F
$$


CITY           SKY/WX    TMP DP  RH WIND       PRES   REMARKS
BURLINGTON     CLOUDY    21  18  88 NW3       30.22F
CEDAR RAPIDS   CLOUDY    18  16  92 W5        30.20F WCI  11
DES MOINES     FLURRIES  19  15  84 W3        30.22S
KIRKSVILLE     CLOUDY    21  16  81 E5        30.22S WCI  15
OTTUMWA        CLOUDY    18  17  96 CALM      30.22S
ST LOUIS       FLURRIES  26  20  77 E5        30.22F WCI  20
$$


CITY           SKY/WX    TMP DP  RH WIND       PRES   REMARKS
TERRE HAUTE    PTCLDY    18  13  80 NE3       30.22F
EVANSVILLE     CLOUDY    29  13  51 CALM      30.23F
INDIANAPOLIS   MOCLDY    20   9  62 CALM      30.21F
LAFAYETTE      CLOUDY    16  11  80 CALM      30.22F
MADISON        CLOUDY    15   0  51 VRB3      30.15F
MILWAUKEE      CLOUDY    18   2  49 W13       30.15F WCI   5
$$





USA.gov is the U.S. government's official web portal to all federal, state and local government web resources and services.